When you browse on this site, cookies collect data to enhance your experience and personalize the content and advertising you see.
Visit our Privacy Policy to learn more. By continuing to use the site, you agree to this use of cookies and data.
  • In Hungary
  • List of Countries
  • For 7 days
  • Water Temperature
  • Satellite Maps
  • Weather Map
  • News
  • Weather Widgets
  • user-avatar
    Login

    Hourly Weather Perekhresne

    Today, 14 December, Friday

    Time Temperature Precipitation Wind Pressure Humidity
    00:00 -5°C° 0 mm 2 mps 689 mmHg 98%
    01:00 -3°C° 0 mm 1 mps 689 mmHg 98%
    02:00 -5°C° 0 mm 0 mps 689 mmHg 92%
    03:00 -4°C° 0 mm 1 mps 689 mmHg 100%
    04:00 -4°C° 0 mm 1 mps 689 mmHg 100%
    05:00 -4°C° 0 mm 1 mps 689 mmHg 100%
    06:00 -4°C° 0 mm 1 mps 690 mmHg 100%
    07:00 -4°C° 0 mm 1 mps 689 mmHg 100%
    08:00 -4°C° 0 mm 1 mps 690 mmHg 99%
    09:00 -6°C° 0 mm 1 mps 690 mmHg 100%
    10:00 -4°C° 0 mm 1 mps 690 mmHg 98%
    11:00 -3°C° 0 mm 1 mps 690 mmHg 98%
    12:00 -3°C° 0 mm 1 mps 691 mmHg 100%
    13:00 -3°C° 0 mm 1 mps 691 mmHg 100%
    14:00 -2°C° 0 mm 1 mps 691 mmHg 100%
    15:00 -4°C° 0 mm 2 mps 691 mmHg 100%
    16:00 -5°C° 0 mm 2 mps 691 mmHg 100%
    17:00 -3°C° 0 mm 1 mps 691 mmHg 100%
    18:00 -4°C° 0 mm 1 mps 691 mmHg 100%
    19:00 -4°C° 0.1 mm 1 mps 691 mmHg 100%
    20:00 -4°C° 0.1 mm 1 mps 691 mmHg 100%
    21:00 -4°C° 0.1 mm 1 mps 691 mmHg 100%
    22:00 -6°C° 0 mm 1 mps 691 mmHg 100%
    23:00 -6°C° 0 mm 1 mps 691 mmHg 100%

    Tomorrow, 15 December, Saturday

    Time Temperature Precipitation Wind Pressure Humidity
    00:00 -6°C° 0 mm 1 mps 691 mmHg 100%
    01:00 -6°C° 0 mm 1 mps 691 mmHg 100%
    02:00 -6°C° 0 mm 1 mps 691 mmHg 100%
    03:00 -7°C° 0 mm 1 mps 691 mmHg 100%
    04:00 -7°C° 0 mm 1 mps 691 mmHg 100%
    05:00 -7°C° 0 mm 1 mps 691 mmHg 100%
    06:00 -8°C° 0 mm 1 mps 691 mmHg 100%
    07:00 -8°C° 0 mm 1 mps 691 mmHg 100%
    08:00 -8°C° 0 mm 1 mps 691 mmHg 100%
    09:00 -8°C° 0 mm 1 mps 691 mmHg 100%
    10:00 -8°C° 0 mm 2 mps 692 mmHg 100%
    11:00 -8°C° 0 mm 2 mps 691 mmHg 100%
    12:00 -8°C° 0.2 mm 2 mps 691 mmHg 100%
    13:00 -8°C° 0.6 mm 2 mps 691 mmHg 100%
    14:00 -9°C° 0.5 mm 2 mps 691 mmHg 100%
    15:00 -9°C° 0.6 mm 2 mps 691 mmHg 100%
    16:00 -9°C° 0.7 mm 2 mps 690 mmHg 100%
    17:00 -9°C° 0.8 mm 2 mps 690 mmHg 100%
    18:00 -8°C° 1 mm 1 mps 690 mmHg 100%
    19:00 -8°C° 0.8 mm 1 mps 690 mmHg 100%
    20:00 -8°C° 0.5 mm 1 mps 689 mmHg 100%
    21:00 -8°C° 0.3 mm 1 mps 689 mmHg 100%
    22:00 -8°C° 0.1 mm 1 mps 689 mmHg 100%
    23:00 -8°C° 0.2 mm 1 mps 689 mmHg 100%

    Day after tomorrow, 16 December, Sunday

    Time Temperature Precipitation Wind Pressure Humidity
    00:00 -8°C° 0.1 mm 1 mps 689 mmHg 100%
    01:00 -8°C° 0.1 mm 1 mps 688 mmHg 100%
    02:00 -8°C° 0 mm 1 mps 688 mmHg 100%
    03:00 -7°C° 0 mm 1 mps 688 mmHg 100%
    04:00 -7°C° 0 mm 1 mps 688 mmHg 100%
    05:00 -6°C° 0 mm 1 mps 688 mmHg 100%
    06:00 -6°C° 0 mm 1 mps 687 mmHg 100%
    07:00 -4°C° 0 mm 1 mps 688 mmHg 100%
    08:00 -4°C° 0 mm 1 mps 688 mmHg 100%
    09:00 -4°C° 0 mm 0 mps 688 mmHg 100%
    10:00 -3°C° 0 mm 0 mps 689 mmHg 100%
    11:00 -2°C° 0 mm 0 mps 689 mmHg 100%
    12:00 0°C° 0 mm 0 mps 690 mmHg 100%
    13:00 +1°C° 0 mm 0 mps 690 mmHg 100%
    14:00 +2°C° 0 mm 0 mps 690 mmHg 99%
    15:00 +3°C° 0 mm 0 mps 690 mmHg 97%
    16:00 +4°C° 0 mm 0 mps 690 mmHg 94%
    17:00 +5°C° 0 mm 1 mps 691 mmHg 95%
    18:00 +5°C° 0 mm 1 mps 691 mmHg 95%
    19:00 +3°C° 0 mm 2 mps 691 mmHg 95%
    20:00 +4°C° 0 mm 1 mps 691 mmHg 95%
    21:00 +4°C° 0 mm 1 mps 692 mmHg 95%
    22:00 +4°C° 0 mm 1 mps 692 mmHg 96%
    23:00 +3°C° 0 mm 2 mps 692 mmHg 96%

    17 December, Monday

    Time Temperature Precipitation Wind Pressure Humidity
    00:00 +4°C° 0 mm 1 mps 692 mmHg 95%
    01:00 +4°C° 0 mm 1 mps 692 mmHg 95%
    02:00 +4°C° 0 mm 1 mps 692 mmHg 95%
    03:00 +4°C° 0 mm 1 mps 692 mmHg 95%
    04:00 +4°C° 0 mm 1 mps 692 mmHg 94%
    05:00 +4°C° 0 mm 1 mps 692 mmHg 94%
    06:00 +4°C° 0 mm 1 mps 692 mmHg 95%
    07:00 +3°C° 0 mm 1 mps 692 mmHg 96%
    08:00 +3°C° 0 mm 1 mps 692 mmHg 96%
    09:00 +3°C° 0 mm 1 mps 692 mmHg 98%
    10:00 +3°C° 0 mm 1 mps 692 mmHg 98%
    11:00 +4°C° 0 mm 1 mps 692 mmHg 99%
    12:00 +3°C° 0 mm 0 mps 693 mmHg 98%
    13:00 +5°C° 0 mm 1 mps 692 mmHg 100%
    14:00 +3°C° 0.2 mm 0 mps 692 mmHg 100%
    15:00 +4°C° 0.3 mm 1 mps 692 mmHg 100%
    16:00 +4°C° 0.2 mm 1 mps 692 mmHg 100%
    17:00 +3°C° 0.1 mm 1 mps 692 mmHg 100%
    18:00 +3°C° 0 mm 1 mps 692 mmHg 100%
    19:00 +2°C° 0.2 mm 1 mps 692 mmHg 100%
    20:00 +2°C° 0.5 mm 1 mps 692 mmHg 100%
    21:00 +2°C° 0.7 mm 1 mps 692 mmHg 100%
    22:00 +1°C° 0.9 mm 1 mps 693 mmHg 100%
    23:00 0°C° 0.7 mm 1 mps 693 mmHg 100%

    18 December, Tuesday

    Time Temperature Precipitation Wind Pressure Humidity
    00:00 0°C° 0.5 mm 1 mps 693 mmHg 100%
    01:00 0°C° 0.4 mm 1 mps 692 mmHg 100%
    02:00 0°C° 0.3 mm 1 mps 693 mmHg 100%

    19 December, Wednesday

    Time Temperature Precipitation Wind Pressure Humidity
    Show more